Regional Weather Roundup
Issued by NWS

Home | Current Version | Previous Version | Text Only | Print | Product List | Glossary On
Versions: 1 2 3 4 5 6 7 8 9 10 11 12 13 14 15 16 17 18 19 20 21 22 23 24 25 26 27 28 29 30 31 32 33 34 35 36 37 38 39 40 41 42 43 44 45 46 47 48 49 50
000
ASCA42 TJSJ 021210
RWRPR
PUERTO RICO/U.S. VIRGIN ISLANDS HOURLY WEATHER ROUNDUP
NATIONAL WEATHER SERVICE SAN JUAN PR
800 AM AST SUN AUG 02 2015

PRZ001-004-021300-
PUERTO RICO

CITY           SKY/WX    TMP DP  RH WIND       PRES   REMARKS
SAN JUAN LMM   MOSUNNY   81  75  83 CALM      29.99R
AGUADILLA      SUNNY     81  73  78 E8        30.00R
$$

PRZ006-007-021300-
U.S. VIRGIN ISLANDS

CITY           SKY/WX    TMP DP  RH WIND       PRES   REMARKS
CHARLOTTE AMA  MOSUNNY   82  72  69 NE15G21   29.97S
CHRISTIANSTED  MOSUNNY   82  75  78 NE6       29.97F
$$

HOURLY WEATHER ROUNDUP FOR THE NEWS MEDIA

CITY           SKY/WX    TMP DP  RH WIND       PRES   REMARKS
ORLANDO        PTSUNNY   76  74  93 S8        29.94R
NEW YORK       MOSUNNY   78  60  53 CALM      29.92R
NEWARK         SUNNY     75  58  55 CALM      29.91R
CHICAGO        MOSUNNY   72  67  84 SW10      29.85S
HARTFORD       SUNNY     72  62  71 CALM      29.89R
BOSTON         SUNNY     72  53  51 W8        29.88R
DALLAS         MOCLDY    80  59  48 SE7       29.95R
PHILADELPHIA   MOSUNNY   75  58  55 W3        29.93R
LOS ANGELES    PTCLDY    68  64  87 CALM      29.89S
WASHINGTON DC  PTSUNNY   72  60  66 CALM      29.96R


USA.gov is the U.S. government's official web portal to all federal, state and local government web resources and services.